AirNav   Everest Fuels
 
 352 users online  

13C Lakeview Airport-Griffith Field
Lakeview, Michigan, USA

GOING TO LAKEVIEW?


FAA INFORMATION EFFECTIVE 03 DECEMBER 2020

Location

FAA Identifier: 13C
Lat/Long: 43-27-08.1000N 085-15-52.7000W
43-27.135000N 085-15.878333W
43.4522500,-85.2646389
(estimated)
Elevation: 968.9 ft. / 295.3 m (surveyed)
Variation: 05W (2000)
From city: 1 mile NE of LAKEVIEW, MI
Time zone: UTC -5 (UTC -4 during Daylight Saving Time)
Zip code: 48850

Airport Operations

Airport use: Open to the public
Activation date: 12/1944
Control tower: no
ARTCC: CHICAGO CENTER
FSS: LANSING FLIGHT SERVICE STATION
NOTAMs facility: LAN (NOTAM-D service available)
Attendance: 0800-DUSK
FOR SVC AFT HRS CALL ASST MGR CELL 989-506-8874.
Wind indicator: lighted
Segmented circle: yes
Lights: ACTVT MIRL RY 10/28; PAPI & REIL RYS 10 & 28 - CTAF.
Beacon: white-green (lighted land airport)
Operates sunset to sunrise.

Airport Communications

CTAF/UNICOM: 122.8
GREAT LAKES APPROACH: 124.6 [0530-0000]
GREAT LAKES DEPARTURE: 124.6 [0530-0000]
WX AWOS-3P at RQB (19 nm NW): 125.875 (231-796-0884)
  • APCH/DEP SVC PRVDD BY CHICAGO ARTCC (ZAU) ON FREQS 132.275/254.35 (MUSKEGON RCAG) WHEN GREAT LAKES APCH CTL CLSD.

Nearby radio navigation aids

VOR radial/distance  VOR name  Freq  Var
HICr112/21.0WHITE CLOUD VOR/DME117.6001W
MOPr251/25.1MOUNT PLEASANT VOR/DME110.6005W

Airport Services

Fuel available: 100LL
Parking: tiedowns
Airframe service: MAJOR
Powerplant service: MAJOR
Bottled oxygen: NONE
Bulk oxygen: NONE

Runway Information

Runway 10/28

Dimensions: 3499 x 75 ft. / 1066 x 23 m
Surface: asphalt, in good condition
Weight bearing capacity: 
Single wheel: 12.0
Runway edge lights: medium intensity
RUNWAY 10  RUNWAY 28
Latitude: 43-27.128585N43-27.140355N
Longitude: 085-16.272793W085-15.482405W
Elevation: 963.0 ft.967.0 ft.
Traffic pattern: leftleft
Runway heading: 094 magnetic, 089 true274 magnetic, 269 true
Markings: nonprecision, in fair conditionnonprecision, in fair condition
Visual slope indicator: 2-light PAPI on left (3.00 degrees glide path)2-light PAPI on left (3.00 degrees glide path)
Runway end identifier lights: yesyes
Touchdown point: yes, no lightsyes, no lights
Obstructions: 63 ft. trees, 1590 ft. from runway, 50 ft. right of centerline, 22:1 slope to clear75 ft. trees, 1710 ft. from runway, 20:1 slope to clear

Airport Ownership and Management from official FAA records

Ownership: Publicly-owned
Owner: VILLAGE OF LAKEVIEW
315 LINCOLN AVE. PO BOX 30
LAKEVIEW, MI 48850
Phone 989-352-6322
Manager: WARREN ROTHE
P.O. BOX 30, 315 E. LINCOLN
LAKEVIEW, MI 48850
Phone (989) 506-8874
ASST MGR @ ARPT 989-506-9974. CITY/ARPT MGR OFC AT CITY HALL 989-352-7306.

Airport Operational Statistics

Aircraft based on the field: 25
Single engine airplanes: 25
    
Aircraft operations: avg 28/day *
49% transient general aviation
49% local general aviation
2% military
* for 12-month period ending 31 December 2017

Additional Remarks

EXTENSIVE AGRICULTURAL OPNS.
DEER & BIRDS ON AND INVOF ARPT.
FOR CD CTC GREAT LAKES APCH AT 269-459-3344, WHEN APCH CLSD CTC CHICAGO ARTCC AT 630-906-8921.

Instrument Procedures

NOTE: All procedures below are presented as PDF files. If you need a reader for these files, you should download the free Adobe Reader.

NOT FOR NAVIGATION. Please procure official charts for flight.
FAA instrument procedures published for use from 03 December 2020 at 0901Z to 31 December 2020 at 0900Z.

 
IAPs - Instrument Approach Procedures
RNAV (GPS) RWY 10   download (176KB)
RNAV (GPS) RWY 28   download (185KB)
NOTE: Special Take-Off Minimums/Departure Procedures apply   download (122KB)

Other nearby airports with instrument procedures:

6D6 - Greenville Municipal Airport (19 nm S)
KRQB - Roben-Hood Airport (19 nm NW)
KMOP - Mount Pleasant Municipal Airport (25 nm NE)
KAMN - Gratiot Community Airport (26 nm E)
8D4 - Paul C Miller-Sparta Airport (27 nm SW)
 
Loc | Ops | Rwys | IFR | FBO | Links
Com | Nav | Svcs | Stats | Notes
Area around 13C (Lakeview Airport-Griffith Field)
 
Road maps at: MapQuest Bing Google
 
Aerial photo
WARNING: Photo may not be current or correct
Aerial photo of 13C (Lakeview Airport-Griffith Field)
Photo by Paul "Wally" Roode

Do you have a better or more recent aerial photo of Lakeview Airport-Griffith Field that you would like to share? If so, please send us your photo.

 
Sectional chart

 
Airport distance calculator
Flying to Lakeview Airport-Griffith Field? Find the distance to fly.

From to 13C

Sunrise and sunset
Times for 05-Dec-2020
 Local
(UTC-5)
 Zulu
(UTC)
Morning civil twilight07:2812:28
Sunrise08:0013:00
Sunset17:0422:04
Evening civil twilight17:3622:36

Current date and time
Zulu (UTC)  05-Dec-2020 09:32:45
Local (UTC-5)  05-Dec-2020 04:32:45
 
METAR
KRQB 
19nm NW 
050920Z AUTO 36009KT 10SM OVC022 M01/M05 A3006 RMK AO2
KMOP 
25nm NE 
050915Z AUTO 36003KT 10SM OVC021 00/M05 A3006 RMK AO2 T10011050
KAMN 
27nm E 
050918Z AUTO 35006KT 10SM OVC024 00/M04 A3006 RMK AO2 T00031040
KFFX 
32nm W 
050915Z AUTO 01006KT 10SM OVC023 M01/M05 A3009 RMK AO2 T10071051
KY70 
32nm S 
050919Z AUTO 35005KT 10SM OVC024 00/M06 A3005 RMK AO2 T10031058
KGRR 
36nm S 
050853Z AUTO 33008KT 10SM OVC023 00/M04 A3006 RMK AO2 SLP188 T00001044 51012
TAF
KGRR 
36nm S 
050540Z 0506/0606 35006KT P6SM BKN040 FM050700 35005KT P6SM BKN025 FM051800 33006KT P6SM BKN035
NOTAMs
Click for the latest NOTAMs
NOTAMs are issued by the DoD/FAA and will open in a separate window not controlled by AirNav.

 

 
 

FBO, Fuel Providers, and Aircraft Ground Support

  
 Business Name 
 
 Contact 
 
 Services / Description 
 
Fuel Prices
 
Comments
  
Petersen Oil Company Inc 616-506-8874
no information available

If you are affiliated with Petersen Oil Company Inc and would like to show here your services, contact info, web link, logo, and more, click here
100LL
SS $4.49 
 Updated 18-Nov-2020
 
   1 read write
SS=Self service
Update Fuel Prices
 

Would you like to see your business listed on this page?

 If your business provides an interesting product or service to pilots, flight crews, aircraft, or users of the Lakeview Airport-Griffith Field, you should consider listing it here.  To start the listing process, click on the button below
 
Add a business
 

Other Pages about Lakeview Airport-Griffith Field

Page from the Michigan Airport Directory (PDF)
 
Update a link
 
Copyright © AirNav, LLC. All rights reserved. Privacy Policy  Contact